Regional Weather Roundup
Issued by NWS Memphis, TN

Home | Current Version | Previous Version | Text Only | Print | Product List | Glossary On
Versions: 1 2 3 4 5 6 7 8 9 10 11 12 13 14 15 16 17 18 19 20 21 22 23 24 25 26 27 28 29 30 31 32 33 34 35 36 37 38 39 40 41 42 43 44 45 46 47 48 49 50
000
ASUS44 KMEG 220810
RWRMEG
MEMPHIS CWA HOURLY WEATHER ROUNDUP
NATIONAL WEATHER SERVICE MEMPHIS TN
200 AM CST SUN JAN 22 2017

...WEST TENNESSEE...

CITY           SKY/WX    TMP DP  RH WIND       PRES   REMARKS
MEMPHIS INTL   HVY RAIN  57  54  89 E17       29.39F FOG
NWS MEMPHIS      N/A     57 N/A N/A MISG        N/A
JACKSON        CLOUDY    57  53  86 CALM      29.45F
BOLIVAR        CLOUDY    59  55  88 E3        29.44F
DYERSBURG      CLOUDY    57  52  82 SE8       29.45S
UNION CITY     CLEAR     57  57 100 CALM      29.46R
PARIS          CLEAR     54  48  82 CALM      29.48S
HUNTINGDON     PTCLDY    55  52  88 SE3       29.47S


...EASTERN ARKANSAS...

CITY           SKY/WX    TMP DP  RH WIND       PRES   REMARKS
JONESBORO      LGT RAIN  56  53  90 NE5       29.43F
WEST MEMPHIS   RAIN      58  58 100 W5        29.43S FOG
BATESVILLE     CLOUDY    55  54  94 CALM      29.44S
NEWPORT        LGT RAIN  57  55  93 S9        29.43
WALNUT RIDGE   CLOUDY    55  50  82 E6        29.43F
BLYTHEVILLE    CLOUDY    56  52  86 E6        29.43F
SEARCY         LGT RAIN  56  56 100 NW5       29.46R
STUTTGART      CLOUDY    55  48  76 NE3       29.43S
PINE BLUFF     CLOUDY    56  55  97 CALM      29.44S
MONTICELLO     CLEAR     51  50  96 CALM      29.43F FOG


...NORTH MISSISSIPPI...

CITY           SKY/WX    TMP DP  RH WIND       PRES   REMARKS
TUPELO         CLOUDY    59  57  93 N8        29.41F
OXFORD         CLOUDY    54  54 100 S6        29.44R
BATESVILLE     CLOUDY    55  53  93 S5        29.43S
TUNICA         HVY RAIN  55  54  94 NW9       29.43R
CLARKSDALE     MOCLDY    55  55 100 CALM      29.44R
CORINTH        RAIN      59  55  88 SE6G17    29.47F
GREENWOOD      PTCLDY    53  51  93 S6        29.45R
STARKVILLE     CLOUDY    57  55  94 CALM      29.47R
GOLDEN TRIANGL CLOUDY    57  54  88 S6        29.42R


...SOUTHEAST MISSOURI...

CITY           SKY/WX    TMP DP  RH WIND       PRES   REMARKS
KENNETT        CLOUDY    55  54  94 E5        29.44S
WEST PLAINS    CLOUDY    55  54  96 SE5       29.45R
POPLAR BLUFF   CLOUDY    53  52  96 CALM      29.46R
CAPE GIRARDEAU CLOUDY    49  48  97 SE5       29.47R


...NORTHWEST ALABAMA...

CITY           SKY/WX    TMP DP  RH WIND       PRES   REMARKS
MUSCLE SHOALS  TSTM      57  54  89 NW5       29.51R FOG


...MIDDLE TENNESSEE...

CITY           SKY/WX    TMP DP  RH WIND       PRES   REMARKS
NASHVILLE      CLOUDY    54  49  83 SE5       29.50F
CLARKSVILLE    CLOUDY    52  48  86 E5        29.50F
COLUMBIA       CLEAR    N/A N/A N/A CALM      29.47F


...WESTERN KENTUCKY...

CITY           SKY/WX    TMP DP  RH WIND       PRES   REMARKS
PADUCAH        CLOUDY    51  47  86 CALM      29.47R
FORT CAMPBELL  CLOUDY    53  50  91 E3        29.50S


...CENTRAL ARKANSAS...

CITY           SKY/WX    TMP DP  RH WIND       PRES   REMARKS
LITTLE ROCK    CLOUDY    52  52 100 CALM      29.44S


SKY/WX REPORTED AS FAIR MEANS FEW OR NO CLOUDS BELOW
12 THOUSAND FEET.





USA.gov is the U.S. government's official web portal to all federal, state and local government web resources and services.